Algonquin Island, Ontario

2:49 PM EDT on June 28, 2017 (GMT -0400)
Rapids Queen at QCYC | | Change Station

Elev 252 ft 43.63 °N, 79.36 °W | Updated 9 minutes ago

Mostly Cloudy
Mostly Cloudy
69.3 °F
Feels Like 69.3 °F
N
9.0
Wind Variable Wind from SE

Today
High -- | Low -- °F
--% Chance of Precip.
Yesterday
High -- | Low -- °F
Precip. -- in
Pressure 30.06 in
Visibility 9.0 miles
Clouds Scattered Clouds 6500 ft
Mostly Cloudy 7900 ft
Dew Point 51 °F
Humidity 52%
Rainfall 1.47 in
Snow Depth Not available.
5:38 AM 9:02 PM
Waxing Crescent, 27% visible
METAR CYTZ 281800Z AUTO 18012KT 9SM SCT065 BKN079 19/12 A3006 RMK SLP180 DENSITY ALT 600FT
Pressure 30.06 in
Visibility 9.0 miles
Clouds Scattered Clouds 6500 ft
Mostly Cloudy 7900 ft
Dew Point 51 °F
Humidity 52%
Rainfall 1.47 in
Snow Depth Not available.
5:38 AM 9:02 PM
Waxing Crescent, 27% visible
METAR CYTZ 281800Z AUTO 18012KT 9SM SCT065 BKN079 19/12 A3006 RMK SLP180 DENSITY ALT 600FT

Get Severe Weather Alerts

Thanks for signing up!

Be on the lookout for a verification email in your inbox.

You'll start receiving the daily forecast at 6 AM.

×

10-Day Weather Forecast

Almanac

Astronomy

Jun. 28, 2017 Rise Set
Actual Time
Civil Twilight
Nautical Twilight
Astronomical Twilight
Moon
Length of Visible Light
Length of Day
Tomorrow will be .
, % of the Moon is Illuminated

Today's Extremes

Country Highs Country Lows

Community

WunderPhotos

Category 6

Welcome to Category 6. This is the collective home for Weather Underground's featured writeups by Dr. Jeff Masters (right), Bob Henson (left), Chris Burt, and other regular contributors.

Nearby

Air Quality

  Air Quality AQ Index Pollutant
Not available.

Snow Depth

Station Depth Elevation

Earthquake Activity

City Distance Mag. Time & Date
Minimum magnitude displayed is 2.5.

Coastal Water Temperatures

Place Temperature

Stations

Nearby Weather Stations

Station Location Temp. Windchill Dew Point Humidity Wind Precip. Elev Updated Type
                   

Watches & Warnings

There are currently no watches in effect.